Time,TemperatureF,DewpointF,PressureIn,WindDirection,WindDirectionDegrees,WindSpeedMPH,WindSpeedGustMPH,Humidity,HourlyPrecipIn,Conditions,Clouds,dailyrainin,SoftwareType,DateUTC
2013-02-04 00:00:00,32.9,19.7,30.01,WSW,258,0.0,0.0,58,0.00,,,0.00,Wunderground v.1.15,2013-02-04 05:00:00,
2013-02-04 00:05:00,32.5,19.3,30.01,WSW,258,0.0,0.0,58,0.00,,,0.00,Wunderground v.1.15,2013-02-04 05:05:00,
2013-02-04 00:10:00,32.0,20.1,30.01,WSW,258,0.0,0.0,61,0.00,,,0.00,Wunderground v.1.15,2013-02-04 05:10:00,
2013-02-04 00:15:00,31.6,19.7,30.01,WSW,258,0.0,0.0,61,0.00,,,0.00,Wunderground v.1.15,2013-02-04 05:15:00,
2013-02-04 00:20:00,31.3,20.2,30.01,WSW,258,0.0,0.0,63,0.00,,,0.00,Wunderground v.1.15,2013-02-04 05:20:00,
2013-02-04 00:25:00,31.0,20.2,30.01,WSW,258,0.0,0.0,64,0.00,,,0.00,Wunderground v.1.15,2013-02-04 05:25:00,
2013-02-04 00:30:00,30.7,20.0,30.01,WSW,258,0.0,0.0,64,0.00,,,0.00,Wunderground v.1.15,2013-02-04 05:30:00,
2013-02-04 00:35:00,30.6,20.2,30.01,WSW,258,0.0,0.0,65,0.00,,,0.00,Wunderground v.1.15,2013-02-04 05:35:00,
2013-02-04 00:40:00,30.4,20.4,30.02,WSW,258,0.0,0.0,66,0.00,,,0.00,Wunderground v.1.15,2013-02-04 05:40:00,
2013-02-04 00:45:00,30.3,19.9,30.02,WSW,258,0.0,0.0,65,0.00,,,0.00,Wunderground v.1.15,2013-02-04 05:45:00,
2013-02-04 00:50:00,30.1,19.7,30.02,WSW,258,0.0,0.0,65,0.00,,,0.00,Wunderground v.1.15,2013-02-04 05:50:00,
2013-02-04 00:55:00,29.8,19.5,30.01,WSW,258,0.0,0.0,65,0.00,,,0.00,Wunderground v.1.15,2013-02-04 05:55:00,
2013-02-04 01:00:00,29.7,19.7,30.01,WSW,258,0.0,1.0,66,0.00,,,0.00,Wunderground v.1.15,2013-02-04 06:00:00,
2013-02-04 01:05:00,29.7,19.4,30.01,WSW,258,0.0,1.0,65,0.00,,,0.00,Wunderground v.1.15,2013-02-04 06:05:00,
2013-02-04 01:10:00,29.8,19.5,30.01,WSW,258,0.0,0.0,65,0.00,,,0.00,Wunderground v.1.15,2013-02-04 06:10:00,
2013-02-04 01:15:00,30.1,19.7,30.01,WSW,258,0.0,0.0,65,0.00,,,0.00,Wunderground v.1.15,2013-02-04 06:15:00,
2013-02-04 01:20:00,30.0,20.4,30.01,WSW,258,0.0,0.0,67,0.00,,,0.00,Wunderground v.1.15,2013-02-04 06:20:00,
2013-02-04 01:25:00,29.7,20.1,30.01,WSW,258,0.0,0.0,67,0.00,,,0.00,Wunderground v.1.15,2013-02-04 06:25:00,
2013-02-04 01:30:00,29.2,19.9,30.01,WSW,258,0.0,0.0,68,0.00,,,0.00,Wunderground v.1.15,2013-02-04 06:30:00,
2013-02-04 01:35:00,28.9,19.7,30.01,WSW,258,0.0,0.0,68,0.00,,,0.00,Wunderground v.1.15,2013-02-04 06:35:00,
2013-02-04 01:40:00,28.6,19.7,30.01,WSW,258,0.0,0.0,69,0.00,,,0.00,Wunderground v.1.15,2013-02-04 06:40:00,
2013-02-04 01:45:00,28.3,19.8,30.01,WSW,258,0.0,0.0,70,0.00,,,0.00,Wunderground v.1.15,2013-02-04 06:45:00,
2013-02-04 01:50:00,28.2,19.7,30.01,WSW,258,0.0,0.0,70,0.00,,,0.00,Wunderground v.1.15,2013-02-04 06:50:00,
2013-02-04 02:00:00,27.9,19.7,30.02,WSW,258,0.0,0.0,71,0.00,,,0.00,Wunderground v.1.15,2013-02-04 07:00:00,
2013-02-04 02:05:00,27.6,19.4,30.02,WSW,258,0.0,0.0,71,0.00,,,0.00,Wunderground v.1.15,2013-02-04 07:05:00,
2013-02-04 02:10:00,27.3,19.5,30.02,WSW,258,0.0,0.0,72,0.00,,,0.00,Wunderground v.1.15,2013-02-04 07:10:00,
2013-02-04 02:20:00,26.9,19.7,30.02,WSW,258,0.0,0.0,74,0.00,,,0.00,Wunderground v.1.15,2013-02-04 07:20:00,
2013-02-04 02:25:00,26.7,19.5,30.02,WSW,258,0.0,0.0,74,0.00,,,0.00,Wunderground v.1.15,2013-02-04 07:25:00,
2013-02-04 02:30:00,26.6,19.1,30.03,WSW,258,0.0,0.0,73,0.00,,,0.00,Wunderground v.1.15,2013-02-04 07:30:00,
2013-02-04 02:35:00,26.4,19.2,30.03,WSW,258,0.0,0.0,74,0.00,,,0.00,Wunderground v.1.15,2013-02-04 07:35:00,
2013-02-04 02:40:00,26.4,18.9,30.03,WSW,258,0.0,0.0,73,0.00,,,0.00,Wunderground v.1.15,2013-02-04 07:40:00,
2013-02-04 02:45:00,26.3,19.1,30.03,WSW,258,0.0,0.0,74,0.00,,,0.00,Wunderground v.1.15,2013-02-04 07:45:00,
2013-02-04 02:50:00,26.1,19.3,30.03,WSW,258,0.0,0.0,75,0.00,,,0.00,Wunderground v.1.15,2013-02-04 07:50:00,
2013-02-04 02:55:00,26.0,19.2,30.03,WSW,258,0.0,0.0,75,0.00,,,0.00,Wunderground v.1.15,2013-02-04 07:55:00,
2013-02-04 03:00:00,25.8,19.0,30.03,WSW,258,0.0,0.0,75,0.00,,,0.00,Wunderground v.1.15,2013-02-04 08:00:00,
2013-02-04 03:10:00,25.7,19.2,30.03,WSW,258,0.0,0.0,76,0.00,,,0.00,Wunderground v.1.15,2013-02-04 08:10:00,
2013-02-04 03:20:00,25.5,19.0,30.03,WSW,258,0.0,0.0,76,0.00,,,0.00,Wunderground v.1.15,2013-02-04 08:20:00,
2013-02-04 03:25:00,25.4,19.2,30.04,WSW,258,0.0,0.0,77,0.00,,,0.00,Wunderground v.1.15,2013-02-04 08:25:00,
2013-02-04 03:30:00,25.4,19.8,30.04,WSW,258,0.0,0.0,79,0.00,,,0.00,Wunderground v.1.15,2013-02-04 08:30:00,
2013-02-04 03:35:00,25.4,19.5,30.04,WSW,258,0.0,0.0,78,0.00,,,0.00,Wunderground v.1.15,2013-02-04 08:35:00,
2013-02-04 03:40:00,25.2,19.3,30.05,WSW,258,0.0,0.0,78,0.00,,,0.00,Wunderground v.1.15,2013-02-04 08:40:00,
2013-02-04 03:45:00,25.1,19.2,30.04,WSW,258,0.0,0.0,78,0.00,,,0.00,Wunderground v.1.15,2013-02-04 08:45:00,
2013-02-04 03:50:00,24.9,19.0,30.04,WSW,258,0.0,0.0,78,0.00,,,0.00,Wunderground v.1.15,2013-02-04 08:50:00,
2013-02-04 03:55:00,24.9,19.3,30.03,WSW,258,0.0,0.0,79,0.00,,,0.00,Wunderground v.1.15,2013-02-04 08:55:00,
2013-02-04 04:00:00,24.9,19.3,30.03,WSW,258,0.0,0.0,79,0.00,,,0.00,Wunderground v.1.15,2013-02-04 09:00:00,
2013-02-04 04:10:00,25.1,20.1,30.04,WSW,258,0.0,0.0,81,0.00,,,0.00,Wunderground v.1.15,2013-02-04 09:10:00,
2013-02-04 04:15:00,25.1,19.8,30.04,WSW,258,0.0,0.0,80,0.00,,,0.00,Wunderground v.1.15,2013-02-04 09:15:00,
2013-02-04 04:20:00,24.9,19.6,30.04,WSW,258,0.0,0.0,80,0.00,,,0.00,Wunderground v.1.15,2013-02-04 09:20:00,
2013-02-04 04:25:00,24.8,19.5,30.04,WSW,258,0.0,0.0,80,0.00,,,0.00,Wunderground v.1.15,2013-02-04 09:25:00,
2013-02-04 04:30:00,24.6,19.3,30.04,WSW,258,0.0,0.0,80,0.00,,,0.00,Wunderground v.1.15,2013-02-04 09:30:00,
2013-02-04 04:40:00,24.8,19.2,30.04,WSW,258,0.0,0.0,79,0.00,,,0.00,Wunderground v.1.15,2013-02-04 09:40:00,
2013-02-04 04:50:00,25.5,19.3,30.05,WSW,258,0.0,0.0,77,0.00,,,0.00,Wunderground v.1.15,2013-02-04 09:50:00,
2013-02-04 04:55:00,25.5,19.3,30.05,WSW,258,0.0,0.0,77,0.00,,,0.00,Wunderground v.1.15,2013-02-04 09:55:00,
2013-02-04 05:00:00,25.4,19.5,30.05,WSW,258,0.0,0.0,78,0.00,,,0.00,Wunderground v.1.15,2013-02-04 10:00:00,
2013-02-04 05:05:00,25.5,19.3,30.05,WSW,258,0.0,0.0,77,0.00,,,0.00,Wunderground v.1.15,2013-02-04 10:05:00,
2013-02-04 05:10:00,25.7,18.9,30.06,WSW,258,0.0,0.0,75,0.00,,,0.00,Wunderground v.1.15,2013-02-04 10:10:00,
2013-02-04 05:15:00,26.0,18.5,30.06,WSW,258,0.0,0.0,73,0.00,,,0.00,Wunderground v.1.15,2013-02-04 10:15:00,
2013-02-04 05:20:00,26.4,19.2,30.06,WSW,258,0.0,0.0,74,0.00,,,0.00,Wunderground v.1.15,2013-02-04 10:20:00,
2013-02-04 05:25:00,26.6,19.1,30.06,WSW,258,0.0,0.0,73,0.00,,,0.00,Wunderground v.1.15,2013-02-04 10:25:00,
2013-02-04 05:30:00,26.9,18.4,30.06,WSW,258,0.0,1.0,70,0.00,,,0.00,Wunderground v.1.15,2013-02-04 10:30:00,
2013-02-04 05:35:00,27.3,18.1,30.06,WSW,258,0.0,1.0,68,0.00,,,0.00,Wunderground v.1.15,2013-02-04 10:35:00,
2013-02-04 05:40:00,27.8,18.3,30.07,WSW,258,0.0,0.0,67,0.00,,,0.00,Wunderground v.1.15,2013-02-04 10:40:00,
2013-02-04 05:45:00,28.0,18.1,30.07,WSW,258,0.0,0.0,66,0.00,,,0.00,Wunderground v.1.15,2013-02-04 10:45:00,
2013-02-04 05:50:00,28.2,19.3,30.08,WSW,258,0.0,0.0,69,0.00,,,0.00,Wunderground v.1.15,2013-02-04 10:50:00,
2013-02-04 05:55:00,28.2,19.0,30.08,WSW,258,0.0,0.0,68,0.00,,,0.00,Wunderground v.1.15,2013-02-04 10:55:00,
2013-02-04 06:00:00,28.2,18.6,30.08,WSW,258,0.0,0.0,67,0.00,,,0.00,Wunderground v.1.15,2013-02-04 11:00:00,
2013-02-04 06:05:00,28.3,18.7,30.08,WSW,258,0.0,0.0,67,0.00,,,0.00,Wunderground v.1.15,2013-02-04 11:05:00,
2013-02-04 06:10:00,28.3,18.7,30.08,WSW,258,0.0,0.0,67,0.00,,,0.00,Wunderground v.1.15,2013-02-04 11:10:00,
2013-02-04 06:15:00,28.5,19.3,30.08,WSW,258,0.0,0.0,68,0.00,,,0.00,Wunderground v.1.15,2013-02-04 11:15:00,
2013-02-04 06:20:00,28.5,20.0,30.08,WSW,258,0.0,0.0,70,0.00,,,0.00,Wunderground v.1.15,2013-02-04 11:20:00,
2013-02-04 06:25:00,28.5,18.9,30.09,WSW,258,0.0,0.0,67,0.00,,,0.00,Wunderground v.1.15,2013-02-04 11:25:00,
2013-02-04 06:30:00,28.5,18.2,30.08,WSW,258,0.0,0.0,65,0.00,,,0.00,Wunderground v.1.15,2013-02-04 11:30:00,
2013-02-04 06:35:00,28.5,19.6,30.08,WSW,258,0.0,0.0,69,0.00,,,0.00,Wunderground v.1.15,2013-02-04 11:35:00,
2013-02-04 06:40:00,28.5,20.0,30.08,WSW,258,0.0,0.0,70,0.00,,,0.00,Wunderground v.1.15,2013-02-04 11:40:00,
2013-02-04 06:45:00,28.3,20.4,30.08,WSW,258,0.0,0.0,72,0.00,,,0.00,Wunderground v.1.15,2013-02-04 11:45:00,
2013-02-04 06:50:00,28.2,20.0,30.08,WSW,258,0.0,0.0,71,0.00,,,0.00,Wunderground v.1.15,2013-02-04 11:50:00,
2013-02-04 06:55:00,27.9,20.4,30.09,WSW,258,0.0,0.0,73,0.00,,,0.00,Wunderground v.1.15,2013-02-04 11:55:00,
2013-02-04 07:00:00,27.6,20.7,30.09,WSW,258,0.0,0.0,75,0.00,,,0.00,Wunderground v.1.15,2013-02-04 12:00:00,
2013-02-04 07:05:00,27.5,20.9,30.09,WSW,258,0.0,0.0,76,0.00,,,0.00,Wunderground v.1.15,2013-02-04 12:05:00,
2013-02-04 07:10:00,27.3,20.7,30.09,WSW,258,0.0,0.0,76,0.00,,,0.00,Wunderground v.1.15,2013-02-04 12:10:00,
2013-02-04 07:15:00,27.2,20.6,30.10,WSW,258,0.0,0.0,76,0.00,,,0.00,Wunderground v.1.15,2013-02-04 12:15:00,
2013-02-04 07:20:00,27.0,20.4,30.10,WSW,258,0.0,0.0,76,0.00,,,0.00,Wunderground v.1.15,2013-02-04 12:20:00,
2013-02-04 07:25:00,27.0,20.1,30.10,WSW,258,0.0,0.0,75,0.00,,,0.00,Wunderground v.1.15,2013-02-04 12:25:00,
2013-02-04 07:30:00,27.0,19.5,30.10,WSW,258,0.0,0.0,73,0.00,,,0.00,Wunderground v.1.15,2013-02-04 12:30:00,
2013-02-04 07:35:00,27.2,20.6,30.10,WSW,258,0.0,0.0,76,0.00,,,0.00,Wunderground v.1.15,2013-02-04 12:35:00,
2013-02-04 07:40:00,27.3,21.3,30.10,WSW,258,0.0,0.0,78,0.00,,,0.00,Wunderground v.1.15,2013-02-04 12:40:00,
2013-02-04 07:45:00,27.3,20.4,30.10,WSW,258,0.0,1.0,75,0.00,,,0.00,Wunderground v.1.15,2013-02-04 12:45:00,
2013-02-04 07:50:00,27.5,18.7,30.10,WSW,258,1.0,1.0,69,0.00,,,0.00,Wunderground v.1.15,2013-02-04 12:50:00,
2013-02-04 08:00:00,28.3,18.4,30.11,West,259,0.0,1.0,66,0.00,,,0.00,Wunderground v.1.15,2013-02-04 13:00:00,
2013-02-04 08:05:00,28.8,17.4,30.12,WNW,286,0.0,1.0,62,0.00,,,0.00,Wunderground v.1.15,2013-02-04 13:05:00,
2013-02-04 08:10:00,29.4,17.2,30.12,WNW,294,0.0,0.0,60,0.00,,,0.00,Wunderground v.1.15,2013-02-04 13:10:00,
2013-02-04 08:20:00,30.4,17.8,30.12,NNW,342,1.0,2.0,59,0.00,,,0.00,Wunderground v.1.15,2013-02-04 13:20:00,
2013-02-04 08:25:00,30.9,17.4,30.12,NNW,342,1.0,2.0,57,0.00,,,0.00,Wunderground v.1.15,2013-02-04 13:25:00,
2013-02-04 08:30:00,31.0,17.5,30.12,NNW,342,1.0,2.0,57,0.00,,,0.00,Wunderground v.1.15,2013-02-04 13:30:00,
2013-02-04 08:40:00,31.4,17.9,30.12,NNW,342,1.0,1.0,57,0.00,,,0.00,Wunderground v.1.15,2013-02-04 13:40:00,
2013-02-04 08:45:00,31.6,18.5,30.12,NNW,342,0.0,1.0,58,0.00,,,0.00,Wunderground v.1.15,2013-02-04 13:45:00,
2013-02-04 08:50:00,31.9,17.5,30.13,NNW,342,0.0,1.0,55,0.00,,,0.00,Wunderground v.1.15,2013-02-04 13:50:00,
2013-02-04 08:55:00,32.2,17.8,30.13,NNW,342,0.0,1.0,55,0.00,,,0.00,Wunderground v.1.15,2013-02-04 13:55:00,
2013-02-04 09:00:00,32.5,17.7,30.13,NNW,345,1.0,1.0,54,0.00,,,0.00,Wunderground v.1.15,2013-02-04 14:00:00,
2013-02-04 09:10:00,32.9,17.2,30.14,North,350,0.0,0.0,52,0.00,,,0.00,Wunderground v.1.15,2013-02-04 14:10:00,
2013-02-04 09:15:00,32.9,17.6,30.14,North,350,0.0,0.0,53,0.00,,,0.00,Wunderground v.1.15,2013-02-04 14:15:00,
2013-02-04 09:20:00,33.2,17.5,30.14,North,350,0.0,0.0,52,0.00,,,0.00,Wunderground v.1.15,2013-02-04 14:20:00,
2013-02-04 09:30:00,33.5,17.3,30.14,North,350,0.0,0.0,51,0.00,,,0.00,Wunderground v.1.15,2013-02-04 14:30:00,
2013-02-04 09:35:00,33.7,18.4,30.15,North,350,0.0,0.0,53,0.00,,,0.00,Wunderground v.1.15,2013-02-04 14:35:00,
2013-02-04 09:40:00,33.8,17.6,30.15,North,350,0.0,0.0,51,0.00,,,0.00,Wunderground v.1.15,2013-02-04 14:40:00,
2013-02-04 09:50:00,34.4,18.1,30.15,North,350,0.0,0.0,51,0.00,,,0.00,Wunderground v.1.15,2013-02-04 14:50:00,
2013-02-04 09:55:00,34.5,18.2,30.15,North,350,1.0,1.0,51,0.00,,,0.00,Wunderground v.1.15,2013-02-04 14:55:00,
2013-02-04 10:00:00,34.8,18.0,30.15,NNW,336,1.0,1.0,50,0.00,,,0.00,Wunderground v.1.15,2013-02-04 15:00:00,
2013-02-04 10:10:00,34.8,17.1,30.14,NNW,335,0.0,1.0,48,0.00,,,0.00,Wunderground v.1.15,2013-02-04 15:10:00,
2013-02-04 10:15:00,35.0,17.3,30.15,NNW,336,1.0,1.0,48,0.00,,,0.00,Wunderground v.1.15,2013-02-04 15:15:00,
2013-02-04 10:20:00,35.1,17.4,30.15,NNW,336,1.0,1.0,48,0.00,,,0.00,Wunderground v.1.15,2013-02-04 15:20:00,
2013-02-04 10:25:00,35.5,17.7,30.15,NNW,336,1.0,1.0,48,0.00,,,0.00,Wunderground v.1.15,2013-02-04 15:25:00,
2013-02-04 10:30:00,36.0,17.2,30.15,NNW,333,1.0,1.0,46,0.00,,,0.00,Wunderground v.1.15,2013-02-04 15:30:00,
2013-02-04 10:35:00,36.7,17.3,30.15,NW,316,1.0,1.0,45,0.00,,,0.00,Wunderground v.1.15,2013-02-04 15:35:00,
2013-02-04 10:40:00,37.1,17.7,30.15,North,360,1.0,1.0,45,0.00,,,0.00,Wunderground v.1.15,2013-02-04 15:40:00,
2013-02-04 10:45:00,37.6,17.6,30.15,WNW,300,1.0,1.0,44,0.00,,,0.00,Wunderground v.1.15,2013-02-04 15:45:00,
2013-02-04 10:50:00,37.7,17.2,30.15,WNW,300,1.0,1.0,43,0.00,,,0.00,Wunderground v.1.15,2013-02-04 15:50:00,
2013-02-04 10:55:00,38.0,18.0,30.15,WNW,300,0.0,1.0,44,0.00,,,0.00,Wunderground v.1.15,2013-02-04 15:55:00,
2013-02-04 11:00:00,38.6,16.9,30.14,NW,325,1.0,1.0,41,0.00,,,0.00,Wunderground v.1.15,2013-02-04 16:00:00,
2013-02-04 11:05:00,39.0,17.3,30.14,NW,325,0.0,1.0,41,0.00,,,0.00,Wunderground v.1.15,2013-02-04 16:05:00,
2013-02-04 11:10:00,39.4,17.0,30.15,WNW,289,0.0,4.0,40,0.00,,,0.00,Wunderground v.1.15,2013-02-04 16:10:00,
2013-02-04 11:15:00,39.7,16.7,30.14,WSW,243,1.0,4.0,39,0.00,,,0.00,Wunderground v.1.15,2013-02-04 16:15:00,
2013-02-04 11:20:00,40.0,17.0,30.14,NNW,343,0.0,0.0,39,0.00,,,0.00,Wunderground v.1.15,2013-02-04 16:20:00,
2013-02-04 11:25:00,40.3,16.1,30.14,NNW,344,1.0,1.0,37,0.00,,,0.00,Wunderground v.1.15,2013-02-04 16:25:00,
2013-02-04 11:30:00,40.3,17.3,30.14,NNW,328,1.0,1.0,39,0.00,,,0.00,Wunderground v.1.15,2013-02-04 16:30:00,
2013-02-04 11:40:00,41.0,17.3,30.14,WNW,300,0.0,0.0,38,0.00,,,0.00,Wunderground v.1.15,2013-02-04 16:40:00,
2013-02-04 11:45:00,41.4,18.3,30.14,NW,319,0.0,1.0,39,0.00,,,0.00,Wunderground v.1.15,2013-02-04 16:45:00,
2013-02-04 11:50:00,41.6,16.6,30.13,NNW,334,1.0,2.0,36,0.00,,,0.00,Wunderground v.1.15,2013-02-04 16:50:00,
2013-02-04 11:55:00,41.8,17.4,30.13,NW,318,1.0,2.0,37,0.00,,,0.00,Wunderground v.1.15,2013-02-04 16:55:00,
2013-02-04 12:00:00,42.3,17.8,30.13,WNW,294,0.0,0.0,37,0.00,,,0.00,Wunderground v.1.15,2013-02-04 17:00:00,
2013-02-04 12:05:00,42.6,18.1,30.12,NW,304,0.0,0.0,37,0.00,,,0.00,Wunderground v.1.15,2013-02-04 17:05:00,
2013-02-04 12:10:00,43.0,17.8,30.13,WSW,255,1.0,1.0,36,0.00,,,0.00,Wunderground v.1.15,2013-02-04 17:10:00,
2013-02-04 12:15:00,43.4,18.2,30.12,South,186,1.0,1.0,36,0.00,,,0.00,Wunderground v.1.15,2013-02-04 17:15:00,
2013-02-04 12:20:00,43.7,19.1,30.11,SE,136,1.0,1.0,37,0.00,,,0.00,Wunderground v.1.15,2013-02-04 17:20:00,
2013-02-04 12:25:00,43.9,18.0,30.11,WSW,249,1.0,4.0,35,0.00,,,0.00,Wunderground v.1.15,2013-02-04 17:25:00,
2013-02-04 12:30:00,43.7,19.1,30.10,SSW,206,2.0,3.0,37,0.00,,,0.00,Wunderground v.1.15,2013-02-04 17:30:00,
2013-02-04 12:35:00,43.6,18.4,30.10,WSW,244,2.0,3.0,36,0.00,,,0.00,Wunderground v.1.15,2013-02-04 17:35:00,
2013-02-04 12:40:00,43.3,18.1,30.10,South,187,1.0,1.0,36,0.00,,,0.00,Wunderground v.1.15,2013-02-04 17:40:00,
2013-02-04 12:45:00,43.3,20.0,30.08,WSW,244,1.0,2.0,39,0.00,,,0.00,Wunderground v.1.15,2013-02-04 17:45:00,
2013-02-04 12:50:00,43.4,18.8,30.08,WSW,242,1.0,1.0,37,0.00,,,0.00,Wunderground v.1.15,2013-02-04 17:50:00,
2013-02-04 12:55:00,43.4,19.5,30.08,SSW,198,2.0,2.0,38,0.00,,,0.00,Wunderground v.1.15,2013-02-04 17:55:00,
2013-02-04 13:00:00,43.7,19.1,30.08,SE,141,2.0,4.0,37,0.00,,,0.00,Wunderground v.1.15,2013-02-04 18:00:00,
2013-02-04 13:05:00,44.0,19.4,30.07,South,171,2.0,4.0,37,0.00,,,0.00,Wunderground v.1.15,2013-02-04 18:05:00,
2013-02-04 13:10:00,44.0,18.7,30.07,SW,223,1.0,1.0,36,0.00,,,0.00,Wunderground v.1.15,2013-02-04 18:10:00,
2013-02-04 13:15:00,44.0,19.4,30.07,WSW,245,1.0,2.0,37,0.00,,,0.00,Wunderground v.1.15,2013-02-04 18:15:00,
2013-02-04 13:20:00,44.0,21.2,30.08,SW,225,1.0,1.0,40,0.00,,,0.00,Wunderground v.1.15,2013-02-04 18:20:00,
2013-02-04 13:25:00,44.2,20.2,30.08,SW,224,1.0,1.0,38,0.00,,,0.00,Wunderground v.1.15,2013-02-04 18:25:00,
2013-02-04 13:30:00,44.5,19.8,30.08,SW,231,2.0,6.0,37,0.00,,,0.00,Wunderground v.1.15,2013-02-04 18:30:00,
2013-02-04 13:40:00,45.3,20.5,30.08,SSW,210,2.0,2.0,37,0.00,,,0.00,Wunderground v.1.15,2013-02-04 18:40:00,
2013-02-04 13:50:00,45.9,21.1,30.08,SSW,201,3.0,5.0,37,0.00,,,0.00,Wunderground v.1.15,2013-02-04 18:50:00,
2013-02-04 13:55:00,46.4,20.9,30.07,WSW,243,2.0,5.0,36,0.00,,,0.00,Wunderground v.1.15,2013-02-04 18:55:00,
2013-02-04 14:00:00,46.7,19.8,30.07,SSW,213,3.0,3.0,34,0.00,,,0.00,Wunderground v.1.15,2013-02-04 19:00:00,
2013-02-04 14:05:00,47.0,20.0,30.06,SSW,197,3.0,4.0,34,0.00,,,0.00,Wunderground v.1.15,2013-02-04 19:05:00,
2013-02-04 14:10:00,47.1,18.7,30.06,SSW,192,3.0,3.0,32,0.00,,,0.00,Wunderground v.1.15,2013-02-04 19:10:00,
2013-02-04 14:15:00,47.0,19.3,30.06,WSW,237,3.0,3.0,33,0.00,,,0.00,Wunderground v.1.15,2013-02-04 19:15:00,
2013-02-04 14:20:00,46.8,18.5,30.06,South,178,3.0,5.0,32,0.00,,,0.00,Wunderground v.1.15,2013-02-04 19:20:00,
2013-02-04 14:25:00,46.8,20.6,30.05,SSW,204,3.0,5.0,35,0.00,,,0.00,Wunderground v.1.15,2013-02-04 19:25:00,
2013-02-04 14:30:00,47.0,20.0,30.05,SSW,202,3.0,3.0,34,0.00,,,0.00,Wunderground v.1.15,2013-02-04 19:30:00,
2013-02-04 14:35:00,47.1,19.4,30.05,SSW,198,3.0,3.0,33,0.00,,,0.00,Wunderground v.1.15,2013-02-04 19:35:00,
2013-02-04 14:40:00,46.7,19.8,30.05,South,180,3.0,3.0,34,0.00,,,0.00,Wunderground v.1.15,2013-02-04 19:40:00,
2013-02-04 14:45:00,46.7,19.8,30.05,SW,223,2.0,3.0,34,0.00,,,0.00,Wunderground v.1.15,2013-02-04 19:45:00,
2013-02-04 14:50:00,47.0,20.7,30.05,SSE,157,2.0,2.0,35,0.00,,,0.00,Wunderground v.1.15,2013-02-04 19:50:00,
2013-02-04 14:55:00,47.1,18.7,30.05,SSE,167,2.0,5.0,32,0.00,,,0.00,Wunderground v.1.15,2013-02-04 19:55:00,
2013-02-04 15:00:00,47.1,20.1,30.05,SE,144,2.0,2.0,34,0.00,,,0.00,Wunderground v.1.15,2013-02-04 20:00:00,
2013-02-04 15:05:00,47.3,20.3,30.05,SSW,203,2.0,2.0,34,0.00,,,0.00,Wunderground v.1.15,2013-02-04 20:05:00,
2013-02-04 15:10:00,47.1,20.1,30.05,SW,217,3.0,3.0,34,0.00,,,0.00,Wunderground v.1.15,2013-02-04 20:10:00,
2013-02-04 15:15:00,47.1,18.7,30.05,SSW,192,2.0,3.0,32,0.00,,,0.00,Wunderground v.1.15,2013-02-04 20:15:00,
2013-02-04 15:20:00,47.4,20.4,30.05,SSE,148,1.0,1.0,34,0.00,,,0.00,Wunderground v.1.15,2013-02-04 20:20:00,
2013-02-04 15:25:00,47.1,20.8,30.05,South,185,1.0,1.0,35,0.00,,,0.00,Wunderground v.1.15,2013-02-04 20:25:00,
2013-02-04 15:30:00,47.1,21.5,30.04,SSW,206,2.0,2.0,36,0.00,,,0.00,Wunderground v.1.15,2013-02-04 20:30:00,
2013-02-04 15:35:00,47.1,20.8,30.04,South,170,1.0,4.0,35,0.00,,,0.00,Wunderground v.1.15,2013-02-04 20:35:00,
2013-02-04 15:40:00,47.0,20.7,30.04,SSE,162,2.0,2.0,35,0.00,,,0.00,Wunderground v.1.15,2013-02-04 20:40:00,
2013-02-04 15:50:00,46.8,21.2,30.04,SSW,197,2.0,2.0,36,0.00,,,0.00,Wunderground v.1.15,2013-02-04 20:50:00,
2013-02-04 15:55:00,46.5,19.6,30.04,South,181,2.0,2.0,34,0.00,,,0.00,Wunderground v.1.15,2013-02-04 20:55:00,
2013-02-04 16:00:00,46.4,20.2,30.03,SSW,192,3.0,3.0,35,0.00,,,0.00,Wunderground v.1.15,2013-02-04 21:00:00,
2013-02-04 16:05:00,46.4,20.2,30.03,SW,227,3.0,4.0,35,0.00,,,0.00,Wunderground v.1.15,2013-02-04 21:05:00,
2013-02-04 16:10:00,46.2,19.3,30.03,SSE,164,3.0,3.0,34,0.00,,,0.00,Wunderground v.1.15,2013-02-04 21:10:00,
2013-02-04 16:15:00,46.2,20.0,30.03,SSE,156,2.0,3.0,35,0.00,,,0.00,Wunderground v.1.15,2013-02-04 21:15:00,
2013-02-04 16:20:00,46.2,20.0,30.03,SSE,163,1.0,2.0,35,0.00,,,0.00,Wunderground v.1.15,2013-02-04 21:20:00,
2013-02-04 16:25:00,46.2,21.3,30.03,SSW,194,1.0,4.0,37,0.00,,,0.00,Wunderground v.1.15,2013-02-04 21:25:00,
2013-02-04 16:30:00,46.1,19.9,30.02,South,174,2.0,2.0,35,0.00,,,0.00,Wunderground v.1.15,2013-02-04 21:30:00,
2013-02-04 16:35:00,46.1,20.6,30.02,South,188,2.0,2.0,36,0.00,,,0.00,Wunderground v.1.15,2013-02-04 21:35:00,
2013-02-04 16:40:00,45.9,21.7,30.03,SSW,211,2.0,2.0,38,0.00,,,0.00,Wunderground v.1.15,2013-02-04 21:40:00,
2013-02-04 16:45:00,45.8,21.0,30.03,SSW,196,2.0,2.0,37,0.00,,,0.00,Wunderground v.1.15,2013-02-04 21:45:00,
2013-02-04 16:50:00,45.6,20.8,30.03,SSW,197,2.0,5.0,37,0.00,,,0.00,Wunderground v.1.15,2013-02-04 21:50:00,
2013-02-04 16:55:00,45.6,22.0,30.02,South,188,2.0,5.0,39,0.00,,,0.00,Wunderground v.1.15,2013-02-04 21:55:00,
2013-02-04 17:00:00,45.5,21.3,30.02,South,190,2.0,4.0,38,0.00,,,0.00,Wunderground v.1.15,2013-02-04 22:00:00,
2013-02-04 17:05:00,45.3,21.2,30.02,South,171,3.0,4.0,38,0.00,,,0.00,Wunderground v.1.15,2013-02-04 22:05:00,
2013-02-04 17:10:00,45.3,22.4,30.02,South,190,3.0,8.0,40,0.00,,,0.00,Wunderground v.1.15,2013-02-04 22:10:00,
2013-02-04 17:15:00,45.2,22.3,30.02,SSW,196,3.0,8.0,40,0.00,,,0.00,Wunderground v.1.15,2013-02-04 22:15:00,
2013-02-04 17:20:00,45.0,22.7,30.02,South,176,2.0,2.0,41,0.00,,,0.00,Wunderground v.1.15,2013-02-04 22:20:00,
2013-02-04 17:25:00,44.9,22.6,30.02,SW,235,2.0,2.0,41,0.00,,,0.00,Wunderground v.1.15,2013-02-04 22:25:00,
2013-02-04 17:30:00,44.9,23.2,30.02,SW,215,2.0,2.0,42,0.00,,,0.00,Wunderground v.1.15,2013-02-04 22:30:00,
2013-02-04 17:40:00,44.6,22.9,30.02,South,190,2.0,2.0,42,0.00,,,0.00,Wunderground v.1.15,2013-02-04 22:40:00,
2013-02-04 17:50:00,44.2,23.1,30.02,South,190,1.0,1.0,43,0.00,,,0.00,Wunderground v.1.15,2013-02-04 22:50:00,
2013-02-04 17:55:00,44.2,23.6,30.02,South,190,1.0,1.0,44,0.00,,,0.00,Wunderground v.1.15,2013-02-04 22:55:00,
2013-02-04 18:00:00,44.0,23.5,30.02,South,190,1.0,2.0,44,0.00,,,0.00,Wunderground v.1.15,2013-02-04 23:00:00,
2013-02-04 18:10:00,43.7,24.2,30.02,South,191,2.0,2.0,46,0.00,,,0.00,Wunderground v.1.15,2013-02-04 23:10:00,
2013-02-04 18:15:00,43.6,23.6,30.02,SSW,192,2.0,2.0,45,0.00,,,0.00,Wunderground v.1.15,2013-02-04 23:15:00,
2013-02-04 18:20:00,43.6,23.6,30.02,SSW,196,2.0,2.0,45,0.00,,,0.00,Wunderground v.1.15,2013-02-04 23:20:00,
2013-02-04 18:30:00,43.4,23.4,30.02,SSW,198,2.0,2.0,45,0.00,,,0.00,Wunderground v.1.15,2013-02-04 23:30:00,
2013-02-04 18:35:00,43.4,23.4,30.02,SSW,199,3.0,3.0,45,0.00,,,0.00,Wunderground v.1.15,2013-02-04 23:35:00,
2013-02-04 18:40:00,43.4,24.0,30.02,South,174,3.0,3.0,46,0.00,,,0.00,Wunderground v.1.15,2013-02-04 23:40:00,
2013-02-04 18:45:00,43.3,23.4,30.02,SSW,196,2.0,4.0,45,0.00,,,0.00,Wunderground v.1.15,2013-02-04 23:45:00,
2013-02-04 18:50:00,43.1,23.2,30.02,South,186,2.0,2.0,45,0.00,,,0.00,Wunderground v.1.15,2013-02-04 23:50:00,
2013-02-04 18:55:00,43.0,23.1,30.02,South,186,1.0,2.0,45,0.00,,,0.00,Wunderground v.1.15,2013-02-04 23:55:00,
2013-02-04 19:00:00,43.0,23.6,30.03,SSW,197,1.0,3.0,46,0.00,,,0.00,Wunderground v.1.15,2013-02-05 00:00:00,
2013-02-04 19:10:00,42.7,23.8,30.03,SSW,197,1.0,2.0,47,0.00,,,0.00,Wunderground v.1.15,2013-02-05 00:10:00,
2013-02-04 19:15:00,42.7,24.4,30.03,SSW,193,1.0,2.0,48,0.00,,,0.00,Wunderground v.1.15,2013-02-05 00:15:00,
2013-02-04 19:20:00,42.6,24.3,30.03,SSW,193,1.0,1.0,48,0.00,,,0.00,Wunderground v.1.15,2013-02-05 00:20:00,
2013-02-04 19:25:00,42.3,24.0,30.03,SSW,193,0.0,1.0,48,0.00,,,0.00,Wunderground v.1.15,2013-02-05 00:25:00,
2013-02-04 19:30:00,42.1,24.3,30.03,SSW,193,0.0,0.0,49,0.00,,,0.00,Wunderground v.1.15,2013-02-05 00:30:00,
2013-02-04 19:35:00,42.0,24.2,30.03,SSW,193,0.0,2.0,49,0.00,,,0.00,Wunderground v.1.15,2013-02-05 00:35:00,
2013-02-04 19:40:00,41.8,24.0,30.03,South,184,0.0,0.0,49,0.00,,,0.00,Wunderground v.1.15,2013-02-05 00:40:00,
2013-02-04 19:45:00,41.7,24.4,30.03,South,184,0.0,0.0,50,0.00,,,0.00,Wunderground v.1.15,2013-02-05 00:45:00,
2013-02-04 19:50:00,41.6,24.3,30.03,South,184,1.0,1.0,50,0.00,,,0.00,Wunderground v.1.15,2013-02-05 00:50:00,
2013-02-04 19:55:00,41.4,24.6,30.03,South,184,1.0,1.0,51,0.00,,,0.00,Wunderground v.1.15,2013-02-05 00:55:00,
2013-02-04 20:00:00,41.3,24.5,30.03,SSW,192,1.0,2.0,51,0.00,,,0.00,Wunderground v.1.15,2013-02-05 01:00:00,
2013-02-04 20:05:00,41.3,24.5,30.03,SSW,192,2.0,2.0,51,0.00,,,0.00,Wunderground v.1.15,2013-02-05 01:05:00,
2013-02-04 20:10:00,41.3,25.0,30.03,SSW,192,1.0,1.0,52,0.00,,,0.00,Wunderground v.1.15,2013-02-05 01:10:00,
2013-02-04 20:15:00,41.1,24.8,30.03,SSW,196,1.0,1.0,52,0.00,,,0.00,Wunderground v.1.15,2013-02-05 01:15:00,
2013-02-04 20:20:00,41.1,24.8,30.02,SSW,196,1.0,1.0,52,0.00,,,0.00,Wunderground v.1.15,2013-02-05 01:20:00,
2013-02-04 20:25:00,41.0,24.7,30.02,SSW,196,1.0,1.0,52,0.00,,,0.00,Wunderground v.1.15,2013-02-05 01:25:00,
2013-02-04 20:30:00,40.8,25.0,30.02,SSW,196,1.0,3.0,53,0.00,,,0.00,Wunderground v.1.15,2013-02-05 01:30:00,
2013-02-04 20:35:00,40.7,25.3,30.02,SSW,196,1.0,3.0,54,0.00,,,0.00,Wunderground v.1.15,2013-02-05 01:35:00,
2013-02-04 20:40:00,40.7,25.3,30.02,South,188,2.0,2.0,54,0.00,,,0.00,Wunderground v.1.15,2013-02-05 01:40:00,
2013-02-04 20:45:00,40.8,25.4,30.02,SSW,195,2.0,4.0,54,0.00,,,0.00,Wunderground v.1.15,2013-02-05 01:45:00,
2013-02-04 20:50:00,40.7,25.3,30.02,South,189,2.0,2.0,54,0.00,,,0.00,Wunderground v.1.15,2013-02-05 01:50:00,
2013-02-04 21:00:00,40.8,25.4,30.02,South,185,2.0,2.0,54,0.00,,,0.00,Wunderground v.1.15,2013-02-05 02:00:00,
2013-02-04 21:10:00,40.8,25.0,30.03,South,186,2.0,2.0,53,0.00,,,0.00,Wunderground v.1.15,2013-02-05 02:10:00,
2013-02-04 21:15:00,40.8,25.4,30.03,South,186,1.0,2.0,54,0.00,,,0.00,Wunderground v.1.15,2013-02-05 02:15:00,
2013-02-04 21:20:00,40.6,25.7,30.02,South,186,1.0,2.0,55,0.00,,,0.00,Wunderground v.1.15,2013-02-05 02:20:00,
2013-02-04 21:25:00,40.4,25.9,30.03,South,186,1.0,3.0,56,0.00,,,0.00,Wunderground v.1.15,2013-02-05 02:25:00,
2013-02-04 21:30:00,40.3,25.8,30.03,South,189,2.0,4.0,56,0.00,,,0.00,Wunderground v.1.15,2013-02-05 02:30:00,
2013-02-04 21:35:00,40.1,25.6,30.02,South,190,2.0,4.0,56,0.00,,,0.00,Wunderground v.1.15,2013-02-05 02:35:00,
2013-02-04 21:40:00,40.1,25.6,30.02,South,190,2.0,2.0,56,0.00,,,0.00,Wunderground v.1.15,2013-02-05 02:40:00,
2013-02-04 21:50:00,39.8,26.2,30.02,South,187,1.0,1.0,58,0.00,,,0.00,Wunderground v.1.15,2013-02-05 02:50:00,
2013-02-04 21:55:00,39.6,25.6,30.03,South,187,1.0,1.0,57,0.00,,,0.00,Wunderground v.1.15,2013-02-05 02:55:00,
2013-02-04 22:00:00,39.4,25.8,30.03,South,187,1.0,1.0,58,0.00,,,0.00,Wunderground v.1.15,2013-02-05 03:00:00,
2013-02-04 22:10:00,39.3,25.7,30.02,South,187,1.0,1.0,58,0.00,,,0.00,Wunderground v.1.15,2013-02-05 03:10:00,
2013-02-04 22:15:00,39.1,25.6,30.02,South,187,1.0,1.0,58,0.00,,,0.00,Wunderground v.1.15,2013-02-05 03:15:00,
2013-02-04 22:20:00,39.0,25.5,30.02,South,187,0.0,1.0,58,0.00,,,0.00,Wunderground v.1.15,2013-02-05 03:20:00,
2013-02-04 22:25:00,38.8,25.7,30.02,South,187,1.0,1.0,59,0.00,,,0.00,Wunderground v.1.15,2013-02-05 03:25:00,
2013-02-04 22:30:00,38.6,25.5,30.02,South,187,1.0,1.0,59,0.00,,,0.00,Wunderground v.1.15,2013-02-05 03:30:00,
2013-02-04 22:40:00,38.4,25.3,30.02,South,187,1.0,1.0,59,0.00,,,0.00,Wunderground v.1.15,2013-02-05 03:40:00,
2013-02-04 22:45:00,38.3,25.2,30.02,South,187,0.0,1.0,59,0.00,,,0.00,Wunderground v.1.15,2013-02-05 03:45:00,
2013-02-04 22:50:00,38.3,25.6,30.02,South,187,1.0,2.0,60,0.00,,,0.00,Wunderground v.1.15,2013-02-05 03:50:00,
2013-02-04 22:55:00,38.1,25.8,30.02,South,187,1.0,2.0,61,0.00,,,0.00,Wunderground v.1.15,2013-02-05 03:55:00,
2013-02-04 23:00:00,38.0,25.7,30.02,South,187,1.0,1.0,61,0.00,,,0.00,Wunderground v.1.15,2013-02-05 04:00:00,
2013-02-04 23:05:00,37.8,25.5,30.02,South,187,0.0,1.0,61,0.00,,,0.00,Wunderground v.1.15,2013-02-05 04:05:00,
2013-02-04 23:10:00,37.7,25.5,30.02,South,187,0.0,0.0,61,0.00,,,0.00,Wunderground v.1.15,2013-02-05 04:10:00,
2013-02-04 23:15:00,37.7,25.8,30.01,South,187,1.0,1.0,62,0.00,,,0.00,Wunderground v.1.15,2013-02-05 04:15:00,
2013-02-04 23:20:00,37.6,25.7,30.01,South,187,1.0,1.0,62,0.00,,,0.00,Wunderground v.1.15,2013-02-05 04:20:00,
2013-02-04 23:30:00,37.6,25.4,30.01,South,187,1.0,1.0,61,0.00,,,0.00,Wunderground v.1.15,2013-02-05 04:30:00,
2013-02-04 23:35:00,37.6,25.4,30.01,South,188,1.0,2.0,61,0.00,,,0.00,Wunderground v.1.15,2013-02-05 04:35:00,
2013-02-04 23:40:00,37.6,25.4,30.01,South,188,1.0,1.0,61,0.00,,,0.00,Wunderground v.1.15,2013-02-05 04:40:00,
2013-02-04 23:45:00,37.6,25.7,30.01,South,188,1.0,1.0,62,0.00,,,0.00,Wunderground v.1.15,2013-02-05 04:45:00,
2013-02-04 23:50:00,37.6,25.4,30.01,South,188,1.0,1.0,61,0.00,,,0.00,Wunderground v.1.15,2013-02-05 04:50:00,
2013-02-04 23:55:00,37.7,25.8,30.01,South,188,1.0,2.0,62,0.00,,,0.00,Wunderground v.1.15,2013-02-05 04:55:00,